Погода в Минвуле

Габон     2°09′10″N   12°08′18″E
темп.,
°C
ветер,
м/с
пор.,
м/с
влажн.,
%
обл.,
%
осадки,
мм/ч
давл.,
гПа
погр.,
м
17 апреля, сб
сб1701:00+20сз1698100 9.6 1011223
04:00+20ююз119846 0.0 100939
07:00+21юз139757 0.0 101197
10:00+28зюз116462 0.0 1011876
13:00+33юв144284 0.0 10072416
16:00+27юв1568100 0.0 1006150
19:00+22з1296100 1.3 100941
22:00+21зюз159974 1.6 1011126
18 апреля, вс
вс1801:00+20ссз159999 4.4 1011158
04:00+20зюз1299100 1.8 101170
07:00+21з1298100 2.0 1013101
10:00+27з2367100 0.1 1013778
13:00+30з126097 0.6 10101603
16:00+24з1493100 3.9 1008184
19:00+22зюз019597 6.8 101111
22:00+21св1198100 5.6 101332
19 апреля, пн
пн1901:00+21зсз0199100 7.8 101229
04:00+21в1199100 1.4 101247
07:00+21сз12100100 4.1 1014108
10:00+21зюз269798 0.4 1013164
13:00+29ююв125582 0.4 1010853
16:00+28ююв126181 0.0 1009514
19:00+22ю118310 0.1 101114
22:00+20юз119867 1.6 101321
20 апреля, вт
вт2001:00+20з1199100 2.7 101222
04:00+20ююз129951 0.1 101147
07:00+20зюз0198100 0.1 101367
10:00+27ю236774 0.0 1012801
13:00+33юв124452 0.0 10091932
16:00+29юв256097 0.0 1007511
19:00+24ююв11785 0.0 100818
22:00+22сз1183100 0.0 101016
21 апреля, ср
ср2101:00+20зсз1298100 1.9 101151
04:00+20сз0099100 2.3 101018
07:00+21сз0098100 2.3 101338
10:00+28з1166100 0.0 1012635
13:00+33всв1344100 0.0 10092353
16:00+26ююз258290 1.1 1008226
19:00+23з119252 1.6 100920
22:00+21ссз1398100 1.8 101290